When you browse on this site, cookies collect data to enhance your experience and personalize the content and advertising you see.
Visit our Privacy Policy to learn more. By continuing to use the site, you agree to this use of cookies and data.
  • en France
  • Liste des pays
  • À 7 jours
  • Température de l'eau
  • Carte satellitaire
  • Carte météo
  • Widgets météo
  • user-avatar
    Se connecter

    Météo par heure à Toulouse

    Ce jour, 21 Mars, Jeudi

    Heure Température Précipitation Vent Pression Humidité
    00:00 +5°C° 0 mm 2 m/s 759 mmHg 70%
    01:00 +5°C° 0 mm 2 m/s 759 mmHg 72%
    02:00 +4°C° 0 mm 2 m/s 759 mmHg 73%
    03:00 +5°C° 0 mm 1 m/s 759 mmHg 74%
    04:00 +4°C° 0 mm 1 m/s 759 mmHg 76%
    05:00 +4°C° 0 mm 1 m/s 759 mmHg 78%
    06:00 +3°C° 0 mm 1 m/s 759 mmHg 80%
    07:00 +5°C° 0 mm 1 m/s 759 mmHg 74%
    08:00 +7°C° 0 mm 1 m/s 759 mmHg 69%
    09:00 +9°C° 0 mm 1 m/s 759 mmHg 63%
    10:00 +11°C° 0 mm 1 m/s 758 mmHg 58%
    11:00 +13°C° 0 mm 1 m/s 758 mmHg 54%
    12:00 +15°C° 0 mm 1 m/s 758 mmHg 49%
    13:00 +15°C° 0 mm 1 m/s 757 mmHg 47%
    14:00 +15°C° 0 mm 1 m/s 757 mmHg 44%
    15:00 +16°C° 0 mm 1 m/s 757 mmHg 42%
    16:00 +15°C° 0 mm 1 m/s 757 mmHg 47%
    17:00 +13°C° 0 mm 1 m/s 757 mmHg 52%
    18:00 +12°C° 0 mm 1 m/s 757 mmHg 57%
    19:00 +11°C° 0 mm 1 m/s 757 mmHg 59%
    20:00 +10°C° 0 mm 1 m/s 758 mmHg 62%
    21:00 +8°C° 0 mm 0 m/s 758 mmHg 64%
    22:00 +7°C° 0 mm 0 m/s 758 mmHg 67%
    23:00 +7°C° 0 mm 0 m/s 758 mmHg 70%

    Demain, 22 Mars, Vendredi

    Heure Température Précipitation Vent Pression Humidité
    00:00 +6°C° 0 mm 0 m/s 758 mmHg 72%
    01:00 +6°C° 0 mm 0 m/s 758 mmHg 74%
    02:00 +6°C° 0 mm 0 m/s 758 mmHg 76%
    03:00 +5°C° 0 mm 0 m/s 758 mmHg 77%
    04:00 +5°C° 0 mm 0 m/s 758 mmHg 78%
    05:00 +5°C° 0 mm 0 m/s 758 mmHg 79%
    06:00 +4°C° 0 mm 0 m/s 758 mmHg 80%
    07:00 +7°C° 0 mm 0 m/s 758 mmHg 72%
    08:00 +10°C° 0 mm 1 m/s 758 mmHg 65%
    09:00 +12°C° 0 mm 1 m/s 758 mmHg 57%
    10:00 +14°C° 0 mm 1 m/s 758 mmHg 51%
    11:00 +16°C° 0 mm 1 m/s 758 mmHg 45%
    12:00 +19°C° 0 mm 1 m/s 757 mmHg 39%
    13:00 +19°C° 0 mm 1 m/s 757 mmHg 38%
    14:00 +20°C° 0 mm 1 m/s 757 mmHg 36%
    15:00 +20°C° 0 mm 1 m/s 756 mmHg 35%
    16:00 +19°C° 0 mm 1 m/s 756 mmHg 40%
    17:00 +16°C° 0 mm 1 m/s 756 mmHg 45%
    18:00 +14°C° 0 mm 1 m/s 756 mmHg 50%
    19:00 +14°C° 0 mm 1 m/s 757 mmHg 52%
    20:00 +13°C° 0 mm 1 m/s 757 mmHg 53%
    21:00 +12°C° 0 mm 1 m/s 757 mmHg 55%
    22:00 +10°C° 0 mm 0 m/s 757 mmHg 58%
    23:00 +10°C° 0 mm 0 m/s 757 mmHg 61%

    Après-demain, 23 Mars, Samedi

    Heure Température Précipitation Vent Pression Humidité
    00:00 +9°C° 0 mm 0 m/s 757 mmHg 64%
    01:00 +10°C° 0 mm 1 m/s 757 mmHg 66%
    02:00 +9°C° 0 mm 1 m/s 757 mmHg 68%
    03:00 +9°C° 0 mm 1 m/s 757 mmHg 70%
    04:00 +8°C° 0 mm 1 m/s 757 mmHg 72%
    05:00 +8°C° 0 mm 1 m/s 757 mmHg 74%
    06:00 +7°C° 0 mm 0 m/s 757 mmHg 77%
    07:00 +9°C° 0 mm 0 m/s 757 mmHg 71%
    08:00 +11°C° 0 mm 0 m/s 756 mmHg 65%
    09:00 +13°C° 0 mm 0 m/s 756 mmHg 60%
    10:00 +15°C° 0 mm 1 m/s 756 mmHg 56%
    11:00 +18°C° 0 mm 1 m/s 756 mmHg 51%
    12:00 +19°C° 0 mm 2 m/s 755 mmHg 47%
    13:00 +19°C° 0 mm 2 m/s 755 mmHg 45%
    14:00 +20°C° 0 mm 2 m/s 754 mmHg 44%
    15:00 +20°C° 0 mm 2 m/s 754 mmHg 43%
    16:00 +19°C° 0 mm 2 m/s 754 mmHg 48%
    17:00 +18°C° 0 mm 1 m/s 754 mmHg 52%
    18:00 +15°C° 0 mm 1 m/s 754 mmHg 57%
    19:00 +14°C° 0 mm 1 m/s 754 mmHg 59%
    20:00 +13°C° 0 mm 1 m/s 754 mmHg 62%
    21:00 +11°C° 0 mm 0 m/s 755 mmHg 64%
    22:00 +11°C° 0 mm 0 m/s 755 mmHg 66%
    23:00 +10°C° 0 mm 0 m/s 754 mmHg 68%

    24 Mars, Dimanche

    Heure Température Précipitation Vent Pression Humidité
    00:00 +10°C° 0 mm 0 m/s 754 mmHg 71%
    01:00 +9°C° 0 mm 0 m/s 754 mmHg 73%
    02:00 +9°C° 0 mm 0 m/s 754 mmHg 75%
    03:00 +10°C° 0 mm 1 m/s 754 mmHg 77%
    04:00 +9°C° 0 mm 1 m/s 754 mmHg 79%
    05:00 +9°C° 0 mm 1 m/s 754 mmHg 80%
    06:00 +9°C° 0 mm 1 m/s 754 mmHg 82%
    07:00 +11°C° 0 mm 1 m/s 754 mmHg 75%
    08:00 +13°C° 0 mm 1 m/s 754 mmHg 69%
    09:00 +15°C° 0 mm 1 m/s 754 mmHg 62%
    10:00 +18°C° 0 mm 1 m/s 754 mmHg 57%
    11:00 +19°C° 0 mm 1 m/s 754 mmHg 51%
    12:00 +21°C° 0 mm 1 m/s 754 mmHg 46%
    13:00 +22°C° 0 mm 1 m/s 753 mmHg 44%
    14:00 +22°C° 0 mm 1 m/s 753 mmHg 43%
    15:00 +22°C° 0 mm 1 m/s 752 mmHg 41%
    16:00 +21°C° 0 mm 1 m/s 752 mmHg 46%
    17:00 +18°C° 0 mm 2 m/s 753 mmHg 52%
    18:00 +17°C° 0 mm 2 m/s 753 mmHg 57%
    19:00 +16°C° 0 mm 2 m/s 753 mmHg 59%
    20:00 +15°C° 0 mm 1 m/s 754 mmHg 62%
    21:00 +13°C° 0 mm 1 m/s 754 mmHg 64%
    22:00 +13°C° 0 mm 1 m/s 754 mmHg 67%
    23:00 +12°C° 0 mm 1 m/s 754 mmHg 70%

    25 Mars, Lundi

    Heure Température Précipitation Vent Pression Humidité
    00:00 +11°C° 0 mm 1 m/s 754 mmHg 73%
    01:00 +11°C° 0 mm 1 m/s 754 mmHg 75%
    02:00 +9°C° 0 mm 2 m/s 753 mmHg 77%
    03:00 +9°C° 0 mm 2 m/s 753 mmHg 80%
    04:00 +8°C° 0 mm 2 m/s 753 mmHg 82%
    05:00 +8°C° 0 mm 2 m/s 753 mmHg 85%
    06:00 +7°C° 0 mm 2 m/s 753 mmHg 87%
    07:00 +9°C° 0 mm 2 m/s 753 mmHg 83%
    08:00 +12°C° 0 mm 2 m/s 754 mmHg 78%
    09:00 +14°C° 0 mm 2 m/s 754 mmHg 73%
    10:00 +14°C° 0 mm 3 m/s 753 mmHg 68%
    11:00 +17°C° 0 mm 3 m/s 753 mmHg 63%
    12:00 +18°C° 0 mm 3 m/s 753 mmHg 57%
    13:00 +19°C° 0 mm 3 m/s 752 mmHg 55%
    14:00 +19°C° 0 mm 3 m/s 752 mmHg 53%
    15:00 +19°C° 0 mm 3 m/s 752 mmHg 50%
    16:00 +18°C° 0 mm 3 m/s 752 mmHg 55%
    17:00 +17°C° 0 mm 2 m/s 752 mmHg 60%
    18:00 +15°C° 0 mm 2 m/s 752 mmHg 65%
    19:00 +14°C° 0 mm 2 m/s 752 mmHg 69%
    20:00 +13°C° 0 mm 2 m/s 753 mmHg 74%
    21:00 +12°C° 0 mm 2 m/s 754 mmHg 78%
    22:00 +10°C° 0 mm 2 m/s 754 mmHg 79%
    23:00 +9°C° 0 mm 2 m/s 754 mmHg 80%

    26 Mars, Mardi

    Heure Température Précipitation Vent Pression Humidité
    00:00 +9°C° 0 mm 2 m/s 754 mmHg 81%
    01:00 +8°C° 0 mm 2 m/s 754 mmHg 82%
    02:00 +7°C° 0 mm 2 m/s 754 mmHg 82%
    03:00 +7°C° 0 mm 2 m/s 754 mmHg 82%
    04:00 +6°C° 0 mm 2 m/s 754 mmHg 81%
    05:00 +7°C° 0 mm 1 m/s 754 mmHg 80%
    06:00 +6°C° 0 mm 1 m/s 754 mmHg 79%
    07:00 +8°C° 0 mm 1 m/s 754 mmHg 71%
    08:00 +9°C° 0 mm 2 m/s 754 mmHg 62%
    09:00 +12°C° 0 mm 2 m/s 754 mmHg 54%
    10:00 +13°C° 0 mm 2 m/s 754 mmHg 50%
    11:00 +14°C° 0 mm 2 m/s 754 mmHg 46%
    12:00 +16°C° 0 mm 3 m/s 754 mmHg 42%
    13:00 +16°C° 0 mm 3 m/s 753 mmHg 41%
    14:00 +17°C° 0 mm 2 m/s 753 mmHg 40%
    15:00 +18°C° 0 mm 2 m/s 753 mmHg 39%
    16:00 +16°C° 0 mm 2 m/s 753 mmHg 44%
    17:00 +15°C° 0 mm 2 m/s 753 mmHg 49%
    18:00 +14°C° 0 mm 2 m/s 754 mmHg 54%
    19:00 +13°C° 0 mm 2 m/s 754 mmHg 56%
    20:00 +10°C° 0 mm 2 m/s 755 mmHg 59%
    21:00 +10°C° 0 mm 1 m/s 755 mmHg 61%
    22:00 +8°C° 0 mm 2 m/s 756 mmHg 60%
    23:00 +8°C° 0 mm 2 m/s 756 mmHg 59%
    Voir plus